Theta_e
322 322 321 321 320 321 322 323 322 322 321 321 322 321 320 313 313 315 318 317 323 322 319 318 317 317 316 315 315 314 314 314 313 313 313 313 313 312 312 312 311 310 310
322 320 319 319 319 321 321 322 322 322 321 321 321 321 320 313 311 314 316 319 319 320 317 316 315 315 315 314 314 313 313 312 313 312 312 312 311 311 311 310 310 309 309
322 320 319 318 319 321 322 322 322 322 321 321 321 322 320 314 312 312 312 312 315 315 315 313 313 313 313 313 313 312 312 311 311 311 310 310 310 310 309 309 309 308 308
324 322 320 319 321 322 322 322 322 321 321 320 320 321 318 312 311 310 308 307 310 311 311 310 310 311 311 312 312 311 310 311 310 309 309 309 309 309 308 308 307 307 307
324 323 321 321 322 321 322 321 321 321 319 318 318 318 316 312 309 309 307 305 307 307 308 307 306 307 310 311 311 311 310 310 309 309 308 307 307 307 307 306 306 306 306
323 322 321 321 321 321 321 320 320 319 319 318 315 313 313 312 309 307 308 306 303 303 304 303 303 304 305 309 310 311 311 310 308 307 306 307 306 305 305 305 304 304 305
323 322 321 320 319 319 320 320 320 318 316 316 311 308 305 306 306 306 307 307 303 301 301 300 298 301 304 306 308 311 311 310 308 306 306 305 305 304 304 304 303 303 303
323 322 322 320 319 319 319 319 318 317 318 315 312 309 306 306 301 303 303 304 303 299 298 297 296 295 300 302 303 308 310 310 309 307 306 306 304 303 303 303 303 303 303
323 322 322 321 320 319 319 319 319 318 317 316 315 312 305 305 303 299 298 301 302 299 297 294 292 292 295 298 301 303 305 308 309 308 306 304 303 302 302 302 301 301 302
322 322 322 321 321 320 320 320 320 320 320 317 314 313 312 310 306 303 297 296 299 299 297 294 292 292 293 295 297 297 299 305 306 305 304 304 303 302 301 300 300 300 300
322 321 321 321 321 320 321 321 319 319 319 320 317 314 314 311 305 305 307 300 295 298 299 295 295 293 291 292 293 296 300 302 302 302 302 301 300 300 300 299 299 299 299
320 321 320 321 321 321 320 320 321 320 319 319 320 319 315 308 307 305 302 308 301 300 297 296 294 293 292 292 292 294 299 301 301 300 299 299 298 298 298 298 297 297 297
318 319 320 320 320 320 321 320 320 319 319 319 319 318 318 317 315 305 307 307 299 300 294 295 294 294 291 290 290 293 297 300 300 300 299 298 298 297 296 296 296 296 296
320 321 319 320 320 320 320 320 320 319 320 318 318 318 319 318 317 311 310 310 303 298 294 297 293 292 291 290 290 293 293 298 300 300 299 298 297 297 296 295 295 294 294
323 321 320 319 320 320 320 319 319 319 318 319 318 318 317 319 319 316 313 312 309 306 307 295 292 291 289 289 290 291 292 295 298 300 299 298 297 296 296 295 294 294 294
322 319 319 319 319 320 320 319 319 319 318 318 318 317 316 317 318 317 315 313 312 309 306 293 290 288 289 289 291 290 291 292 296 298 299 298 297 296 295 295 294 293 292
321 320 319 319 319 319 319 319 319 319 318 317 318 317 316 317 316 316 316 314 311 309 305 291 288 288 287 287 288 289 289 290 291 295 297 297 296 295 295 294 294 293 293
320 320 319 318 318 318 319 318 318 318 317 316 317 316 315 316 315 316 314 309 308 303 300 293 285 285 286 288 288 287 287 288 288 291 294 296 295 295 294 294 294 293 293
318 318 318 317 317 317 317 318 318 318 317 317 317 316 316 315 312 312 305 301 299 295 295 289 287 287 285 286 286 286 285 286 287 289 292 293 293 293 294 294 294 293 292
316 316 316 317 317 317 317 318 317 317 317 315 312 309 306 305 304 303 300 298 293 291 290 289 286 285 285 285 286 284 283 285 285 286 288 289 290 291 293 293 293 292 292
306 307 311 310 307 304 302 305 307 306 304 303 299 299 297 295 295 298 296 293 292 289 288 287 285 284 283 283 283 284 284 284 284 287 286 286 288 289 290 291 291 291 292
298 297 296 297 297 297 295 296 299 300 298 297 295 293 292 289 293 295 295 294 294 290 287 287 287 286 285 285 285 284 283 282 282 287 285 285 285 286 286 288 288 290 291
293 292 293 293 292 293 295 294 294 296 294 295 292 291 289 289 289 291 293 293 292 293 292 290 288 287 286 286 286 284 285 285 285 282 284 283 284 284 286 285 287 288 289
290 290 289 290 290 290 293 294 291 293 292 291 291 290 290 289 289 288 289 288 287 287 288 287 288 287 287 287 287 286 285 284 283 282 283 282 281 283 283 284 286 287 289
288 287 287 286 286 287 292 292 289 288 287 286 287 288 288 288 289 290 286 285 285 285 289 289 289 290 290 289 288 285 283 282 282 282 282 283 281 281 282 282 283 285 287
285 285 285 285 285 286 291 290 287 286 285 285 286 286 286 287 288 290 286 285 285 285 286 285 286 288 289 288 288 287 286 282 280 280 281 282 280 281 280 281 280 281 283
Wind_Speed
5 5 4 4 3 2 2 2 2 2 3 4 4 4 5 5 5 2 2 5 9 9 7 6 5 6 6 5 6 6 6 7 8 8 10 11 11 11 13 14 14 15 15
5 5 4 4 3 3 2 2 3 2 3 4 4 5 5 4 6 5 4 4 8 8 7 5 3 3 4 4 4 4 5 4 7 7 8 9 10 11 12 12 12 14 15
6 6 5 4 5 4 4 3 3 3 3 3 5 5 5 5 4 6 5 5 5 8 7 4 1 1 2 3 3 3 4 3 5 7 7 8 8 10 10 10 13 12 13
10 8 6 6 5 4 4 4 4 4 3 3 2 4 4 5 5 5 5 4 5 4 5 4 2 2 2 3 3 3 3 4 2 4 6 6 7 8 9 11 10 11 12
9 8 6 6 6 5 5 5 4 4 3 3 3 4 4 6 6 5 7 6 7 7 5 6 3 2 4 4 4 4 4 5 3 4 4 5 6 7 7 8 9 10 10
10 8 6 7 6 6 6 5 6 4 3 3 4 3 3 4 5 6 6 6 6 8 7 7 5 4 4 5 6 7 7 6 4 4 3 4 4 4 5 6 6 7 9
10 10 8 8 7 7 7 8 6 7 5 5 4 1 2 4 7 7 7 7 9 9 9 7 5 4 4 5 6 10 8 7 7 5 4 5 4 3 4 5 5 6 7
11 10 10 8 9 7 8 8 8 4 4 7 3 1 3 4 7 8 7 8 9 6 7 7 6 7 6 4 5 9 9 9 9 9 8 6 3 1 3 4 5 7 8
12 12 11 10 9 8 7 9 10 10 7 7 8 3 2 6 1 3 10 8 9 8 7 8 8 7 7 6 7 6 7 11 12 11 9 5 4 1 1 3 4 5 7
13 13 13 11 10 8 10 9 8 9 9 8 4 8 5 2 5 3 4 6 9 11 10 7 8 9 9 7 10 9 10 12 12 10 8 8 5 3 1 2 2 4 6
14 13 13 13 13 10 11 12 10 12 9 9 9 4 9 6 3 6 10 5 6 10 11 9 11 10 11 9 6 8 13 13 9 9 8 5 4 4 2 0 1 2 5
9 13 13 14 14 12 13 12 12 13 12 12 10 10 8 5 7 8 9 11 9 5 8 9 11 10 10 10 12 15 15 13 11 8 9 8 7 4 2 1 1 2 2
8 13 15 13 12 13 13 11 12 13 14 13 13 11 10 12 8 5 8 9 7 5 5 8 9 10 9 9 7 5 8 13 13 13 13 12 9 7 4 3 2 3 4
11 11 13 14 14 13 13 12 11 11 12 12 16 13 11 11 10 10 11 10 7 6 5 7 7 9 8 9 11 19 10 14 16 17 15 13 11 10 8 5 4 4 5
9 11 13 13 13 13 14 13 11 13 12 12 12 13 12 11 9 10 10 10 11 10 10 6 4 7 7 9 13 12 11 16 17 18 18 17 14 11 10 8 7 6 6
10 8 10 11 12 12 13 12 11 11 12 10 10 12 12 10 11 10 11 11 10 11 10 3 3 4 7 7 10 8 8 11 16 16 18 18 14 15 13 11 11 8 7
9 11 11 11 12 12 11 12 13 13 13 13 12 12 14 14 10 10 9 9 8 8 10 2 3 2 6 8 9 10 7 8 5 13 16 15 15 15 14 13 13 12 12
8 11 10 11 11 12 12 13 13 11 12 13 13 13 14 10 12 12 7 8 7 3 3 4 2 3 3 11 10 10 9 8 7 12 15 15 17 17 17 17 17 17 16
9 9 9 11 12 12 11 11 12 12 12 13 13 13 13 12 10 7 2 3 4 3 3 3 5 1 2 6 6 6 8 7 5 10 15 17 18 19 20 21 20 20 18
7 7 9 9 9 9 10 11 11 11 12 8 4 1 3 3 5 6 5 5 4 4 4 4 3 3 2 4 6 6 5 3 5 5 11 12 13 16 20 21 20 19 17
3 3 3 3 4 4 2 1 2 5 4 4 4 4 4 2 3 3 4 5 7 5 4 4 3 4 4 5 10 6 6 5 6 7 7 7 7 8 10 18 18 17 21
4 5 5 5 5 3 4 6 5 4 5 4 4 4 4 3 3 5 7 10 10 8 7 6 5 5 7 6 8 8 6 5 5 8 7 8 7 8 7 8 17 21 21
5 5 5 5 5 4 5 5 7 4 5 4 4 4 3 1 2 3 5 8 10 10 6 6 5 4 6 8 9 8 8 6 5 4 7 5 6 7 6 8 19 19 21
5 4 4 4 5 3 4 4 6 5 4 4 3 2 2 4 3 3 4 2 2 2 1 2 4 4 3 8 11 6 8 4 2 4 6 4 3 4 3 6 13 15 18
3 3 3 5 5 3 5 6 5 4 4 5 4 3 2 3 2 5 4 5 3 2 3 5 6 8 10 15 11 7 7 7 5 4 6 1 2 2 2 2 3 10 14
4 4 5 4 4 3 8 8 6 3 4 3 3 4 5 3 3 7 4 5 4 3 5 5 4 5 5 8 14 5 6 7 3 2 5 6 2 1 2 1 2 3 5
Wind_Direction
180 171 178 185 180 154 159 166 152 148 154 150 158 166 170 148 135 105 30 31 95 110 98 94 94 94 86 84 84 82 81 78 84 61 59 63 55 50 50 46 40 40 33
178 183 184 196 198 191 181 195 190 180 181 185 178 185 182 169 153 143 116 73 80 103 105 83 88 97 110 108 97 97 94 79 75 70 67 62 58 54 48 46 42 37 33
191 188 190 194 200 199 200 193 196 202 200 198 203 189 178 182 181 147 136 125 115 98 113 116 111 130 134 135 127 133 96 110 94 80 75 70 60 57 54 49 42 39 31
195 194 199 209 202 198 196 201 204 215 225 221 209 179 178 178 182 169 144 150 148 141 130 143 169 219 229 196 169 149 111 122 104 86 87 77 69 59 46 45 39 38 33
206 207 204 213 208 207 206 205 209 217 209 205 194 174 185 190 187 190 172 174 169 167 172 168 182 257 246 227 202 176 173 144 141 126 97 84 70 65 57 47 41 33 34
208 203 212 217 205 209 211 203 212 206 218 194 163 170 196 203 194 204 214 184 189 188 185 186 191 201 254 227 218 209 196 170 166 134 137 108 101 83 64 55 44 34 32
203 202 211 214 206 212 209 205 204 208 199 170 138 162 228 226 218 213 208 215 211 207 204 199 194 196 209 211 234 219 209 185 180 173 168 175 160 154 90 63 44 28 32
204 204 208 211 207 207 209 205 198 193 214 185 173 129 233 220 232 224 214 223 228 234 234 219 210 208 214 224 235 246 218 202 189 196 196 195 181 143 83 59 35 23 12
207 203 204 206 207 206 213 208 206 203 212 202 213 172 172 234 193 180 225 228 228 228 232 230 225 218 215 215 220 223 243 212 201 204 200 188 203 174 74 63 35 24 12
208 206 207 205 205 205 216 213 203 209 210 220 214 241 254 162 223 270 215 234 229 232 226 217 219 218 215 211 210 216 223 211 205 199 199 193 192 189 170 77 32 16 9
208 206 204 201 208 210 216 213 204 209 207 221 218 199 228 225 222 241 268 222 235 230 227 212 213 209 208 210 208 216 216 207 193 191 196 206 191 196 182 134 20 34 358
203 209 205 209 214 215 212 211 212 210 211 219 224 224 215 199 206 214 237 249 246 228 217 209 212 209 206 203 200 203 202 203 195 198 199 198 216 212 200 219 296 317 333
206 210 205 211 216 217 217 210 209 215 215 220 223 224 226 234 224 212 231 245 228 223 222 224 217 210 201 195 190 191 216 200 193 208 217 204 205 211 215 227 256 300 313
212 204 203 211 215 214 214 211 216 220 220 222 226 222 229 232 226 219 233 246 255 240 223 244 209 209 206 170 167 175 184 215 204 206 215 218 210 212 214 216 242 251 279
214 201 198 206 213 214 213 211 218 224 220 226 229 229 229 237 231 227 228 229 239 265 256 201 211 206 181 172 179 187 191 197 209 205 212 217 211 223 222 218 228 238 260
207 186 196 203 209 214 215 213 221 227 222 223 228 228 228 237 236 228 230 232 231 243 267 124 184 163 174 176 183 184 190 196 215 215 214 220 210 221 226 228 236 239 248
192 198 200 205 212 215 215 213 222 227 225 228 228 227 231 232 233 234 231 229 228 225 249 98 87 128 171 174 181 166 190 194 203 223 235 210 219 228 231 232 241 243 247
199 203 202 206 213 216 217 219 223 223 226 229 232 231 233 234 235 239 231 220 223 196 195 163 152 163 165 189 187 187 167 191 192 217 223 217 229 236 239 239 240 243 242
208 210 207 211 215 219 219 220 224 227 226 229 231 234 233 232 233 241 200 140 148 167 168 144 140 172 146 168 178 165 176 189 184 214 231 235 238 243 246 241 240 247 251
210 207 215 219 220 220 220 222 223 230 235 239 251 172 116 170 193 177 180 184 138 149 169 142 146 153 164 135 181 174 176 178 197 185 220 231 245 251 251 253 252 251 246
72 82 172 147 98 93 67 46 145 126 132 139 113 92 77 50 130 162 173 172 161 166 166 164 159 163 166 159 192 173 171 172 192 197 217 222 231 240 242 252 254 259 248
69 78 80 108 105 87 68 85 129 133 121 129 127 113 120 121 164 201 196 174 179 175 178 177 187 199 200 163 168 169 147 165 207 195 205 236 209 233 232 236 244 249 252
112 106 100 109 101 94 90 99 103 119 118 124 136 160 144 115 168 188 193 192 202 191 180 189 191 189 166 176 161 166 180 186 193 151 186 233 195 238 225 235 241 245 248
115 111 103 113 117 80 83 111 111 116 116 113 125 164 179 185 181 150 147 130 63 25 275 159 179 187 156 164 174 176 170 149 119 157 184 221 169 232 215 230 238 246 248
107 94 97 92 92 59 68 105 100 100 85 76 71 69 67 53 87 155 133 122 119 68 110 120 141 150 157 166 153 131 161 175 214 211 197 225 175 263 268 285 276 256 248
85 88 86 73 78 67 87 88 93 99 104 92 57 49 56 74 85 150 139 144 158 166 136 104 83 101 122 170 173 188 162 191 152 187 186 194 181 236 322 338 303 275 258